{"data":{"norad_id":53168,"intl_designator":"2022-083AN","name":"STARLINK-4105","alt_names":[],"object_type":"PAYLOAD","status":"ACTIVE","operator":null,"country":"US","launch_date":"2022-07-17","launch_site_code":"AFETR","launch_vehicle":null,"mission":null,"orbit_class":"UNKNOWN","rcs_meters":null,"size_class":null,"mass_kg":null,"dimensions":null,"purposes":["comms"],"wikipedia_slug":null,"has_3d_model":false,"image_url":null,"decayed_at":null,"tle_current":{"epoch":"2026-05-24T14:26:03.550272Z","epoch_age_seconds":112793,"freshness":"FRESH","line1":"1 53168U 22083AN  26144.60142998 -.00000180  00000+0  67910-5 0  9991","line2":"2 53168  53.2129 183.3387 0000857  82.2489 277.8600 15.08832267212820","mean_motion":15.08832267,"eccentricity":8.57e-5,"inclination_deg":53.2129,"raan_deg":183.3387,"arg_perigee_deg":82.2489,"mean_anomaly_deg":277.86,"bstar":6.791e-6,"rev_number":21282,"period_min":95.438043810074,"perigee_km":539.17416137741,"apogee_km":540.35989012743,"semimajor_km":6917.9040257524,"source":"CELESTRAK","updated_at":"2026-05-25T13:38:17.323339Z"}}}